QPF
0.09 0.10 0.10 0.11 0.10 0.08 0.07 0.08 0.05 0.04 0.03 0.04 0.04 0.04 0.03 0.03 0.04 0.05 0.06 0.02 0.01 0.01 0.01 0.01 0.01 0.02 0.02 0.02 0.02 0.01 0.02 0.02 0.02 0.02 0.02 0.02 0.02 0.02 0.01 0.01 0.01 0.01 0.01
0.08 0.07 0.08 0.10 0.08 0.06 0.05 0.05 0.05 0.05 0.06 0.06 0.05 0.04 0.03 0.03 0.04 0.05 0.05 0.03 0.01 0.01 0.01 0.01 0.02 0.03 0.03 0.02 0.02 0.02 0.02 0.01 0.02 0.02 0.03 0.03 0.02 0.02 0.02 0.02 0.02 0.02 0.01
0.07 0.06 0.07 0.08 0.08 0.05 0.04 0.05 0.05 0.05 0.06 0.06 0.05 0.04 0.05 0.03 0.04 0.03 0.04 0.06 0.05 0.03 0.03 0.01 0.02 0.04 0.05 0.05 0.05 0.04 0.04 0.03 0.03 0.03 0.03 0.03 0.02 0.01 0.02 0.02 0.01 0.01 0.01
0.05 0.07 0.08 0.06 0.05 0.04 0.05 0.06 0.07 0.07 0.07 0.06 0.05 0.04 0.04 0.03 0.03 0.02 0.03 0.05 0.07 0.07 0.04 0.02 0.02 0.03 0.04 0.06 0.06 0.05 0.05 0.04 0.03 0.03 0.03 0.02 0.02 0.02 0.01 0.02 0.01 0.01 0.01
0.03 0.07 0.08 0.08 0.05 0.05 0.06 0.06 0.08 0.08 0.09 0.07 0.04 0.04 0.03 0.03 0.04 0.02 0.03 0.04 0.05 0.06 0.07 0.05 0.03 0.03 0.04 0.06 0.05 0.05 0.04 0.04 0.04 0.05 0.04 0.04 0.04 0.02 0.02 0.02 0.02 0.02 0.02
0.02 0.05 0.07 0.06 0.05 0.06 0.08 0.09 0.12 0.10 0.09 0.07 0.04 0.08 0.05 0.04 0.03 0.04 0.04 0.04 0.05 0.04 0.05 0.07 0.07 0.03 0.03 0.04 0.04 0.05 0.05 0.06 0.07 0.06 0.05 0.05 0.05 0.04 0.04 0.03 0.03 0.02 0.02
0.03 0.04 0.07 0.08 0.06 0.07 0.08 0.07 0.10 0.12 0.10 0.07 0.09 0.10 0.06 0.03 0.03 0.03 0.04 0.04 0.06 0.05 0.04 0.07 0.10 0.09 0.06 0.03 0.03 0.04 0.05 0.06 0.08 0.07 0.06 0.06 0.06 0.06 0.06 0.05 0.05 0.04 0.02
0.04 0.04 0.06 0.07 0.09 0.10 0.08 0.09 0.11 0.14 0.13 0.10 0.10 0.14 0.12 0.11 0.08 0.05 0.05 0.04 0.04 0.05 0.05 0.05 0.09 0.11 0.08 0.08 0.06 0.04 0.05 0.06 0.08 0.09 0.09 0.08 0.07 0.08 0.07 0.06 0.05 0.04 0.03
0.03 0.05 0.05 0.07 0.09 0.07 0.13 0.14 0.14 0.14 0.14 0.12 0.09 0.14 0.15 0.17 0.14 0.08 0.05 0.05 0.06 0.07 0.07 0.07 0.06 0.08 0.08 0.11 0.10 0.06 0.05 0.05 0.06 0.07 0.07 0.06 0.05 0.05 0.05 0.05 0.04 0.03 0.03
0.03 0.04 0.04 0.08 0.09 0.09 0.13 0.11 0.14 0.15 0.15 0.13 0.15 0.13 0.11 0.14 0.15 0.14 0.09 0.07 0.07 0.07 0.07 0.07 0.07 0.07 0.11 0.13 0.13 0.08 0.05 0.04 0.04 0.05 0.06 0.05 0.06 0.05 0.04 0.05 0.05 0.05 0.04
0.04 0.04 0.05 0.08 0.08 0.09 0.09 0.11 0.16 0.14 0.12 0.12 0.13 0.14 0.13 0.15 0.13 0.15 0.14 0.12 0.09 0.07 0.07 0.07 0.08 0.08 0.09 0.13 0.15 0.09 0.06 0.04 0.03 0.03 0.04 0.04 0.05 0.05 0.05 0.06 0.07 0.08 0.07
0.04 0.03 0.04 0.08 0.08 0.08 0.08 0.09 0.12 0.11 0.12 0.13 0.12 0.12 0.13 0.14 0.15 0.17 0.16 0.13 0.11 0.08 0.06 0.06 0.07 0.09 0.10 0.12 0.11 0.08 0.05 0.05 0.03 0.02 0.02 0.02 0.02 0.03 0.06 0.07 0.08 0.10 0.10
0.04 0.04 0.04 0.07 0.06 0.06 0.06 0.08 0.08 0.10 0.11 0.13 0.13 0.11 0.12 0.11 0.12 0.12 0.13 0.11 0.10 0.08 0.08 0.07 0.07 0.09 0.11 0.14 0.12 0.09 0.07 0.06 0.03 0.01 0.01 0.01 0.01 0.02 0.04 0.07 0.09 0.10 0.09
0.03 0.03 0.03 0.03 0.04 0.04 0.05 0.08 0.07 0.07 0.08 0.10 0.11 0.13 0.11 0.10 0.11 0.11 0.12 0.13 0.12 0.10 0.10 0.09 0.07 0.09 0.10 0.11 0.09 0.09 0.06 0.05 0.03 0.01 0.01 0.01 0.02 0.04 0.05 0.06 0.06 0.06 0.06
0.02 0.02 0.02 0.02 0.02 0.03 0.05 0.07 0.08 0.08 0.10 0.10 0.10 0.13 0.11 0.08 0.08 0.09 0.09 0.12 0.14 0.13 0.11 0.10 0.08 0.09 0.09 0.10 0.10 0.09 0.07 0.04 0.03 0.02 0.02 0.02 0.02 0.03 0.03 0.03 0.03 0.04 0.06
0.02 0.03 0.03 0.03 0.02 0.02 0.04 0.06 0.07 0.09 0.08 0.09 0.09 0.08 0.08 0.08 0.08 0.09 0.09 0.11 0.12 0.14 0.13 0.11 0.10 0.09 0.09 0.08 0.08 0.09 0.09 0.07 0.04 0.03 0.02 0.02 0.01 0.01 0.02 0.03 0.04 0.06 0.07
0.04 0.04 0.05 0.04 0.04 0.04 0.05 0.06 0.05 0.07 0.07 0.08 0.07 0.08 0.07 0.10 0.08 0.07 0.08 0.09 0.10 0.14 0.14 0.12 0.11 0.11 0.12 0.11 0.10 0.09 0.07 0.05 0.04 0.03 0.03 0.02 0.01 0.02 0.03 0.03 0.04 0.05 0.05
0.03 0.04 0.05 0.06 0.06 0.06 0.05 0.05 0.05 0.06 0.06 0.06 0.07 0.08 0.08 0.09 0.10 0.08 0.08 0.08 0.08 0.10 0.11 0.11 0.11 0.11 0.13 0.13 0.11 0.08 0.05 0.04 0.05 0.05 0.05 0.05 0.05 0.06 0.06 0.06 0.06 0.07 0.07
0.04 0.03 0.03 0.04 0.04 0.04 0.04 0.05 0.06 0.06 0.05 0.04 0.04 0.04 0.05 0.07 0.07 0.07 0.07 0.06 0.06 0.07 0.09 0.09 0.08 0.09 0.10 0.10 0.10 0.08 0.06 0.06 0.06 0.07 0.07 0.06 0.05 0.05 0.05 0.05 0.05 0.04 0.04
0.04 0.04 0.03 0.04 0.03 0.03 0.04 0.05 0.04 0.05 0.04 0.03 0.02 0.02 0.03 0.04 0.05 0.06 0.05 0.05 0.05 0.06 0.07 0.07 0.07 0.07 0.07 0.08 0.08 0.07 0.08 0.08 0.06 0.05 0.05 0.04 0.04 0.03 0.03 0.02 0.02 0.02 0.03
0.04 0.05 0.05 0.04 0.04 0.04 0.03 0.04 0.04 0.04 0.04 0.03 0.03 0.02 0.02 0.03 0.04 0.04 0.03 0.04 0.04 0.05 0.06 0.06 0.07 0.07 0.07 0.08 0.07 0.07 0.07 0.08 0.07 0.04 0.05 0.03 0.02 0.02 0.02 0.03 0.03 0.03 0.03
0.05 0.05 0.05 0.04 0.04 0.03 0.04 0.03 0.03 0.05 0.06 0.05 0.04 0.04 0.04 0.05 0.05 0.03 0.03 0.03 0.04 0.04 0.05 0.06 0.08 0.08 0.07 0.08 0.09 0.08 0.08 0.08 0.06 0.04 0.04 0.03 0.03 0.03 0.02 0.02 0.04 0.05 0.05
0.06 0.06 0.05 0.05 0.04 0.05 0.06 0.04 0.04 0.04 0.05 0.06 0.06 0.06 0.05 0.04 0.05 0.04 0.04 0.03 0.02 0.02 0.03 0.04 0.06 0.07 0.07 0.08 0.08 0.07 0.07 0.06 0.04 0.04 0.03 0.03 0.04 0.04 0.03 0.02 0.02 0.03 0.04
0.06 0.06 0.06 0.06 0.06 0.07 0.08 0.05 0.03 0.02 0.03 0.05 0.06 0.06 0.07 0.07 0.05 0.04 0.04 0.04 0.03 0.03 0.03 0.03 0.04 0.05 0.06 0.05 0.04 0.04 0.05 0.05 0.05 0.05 0.04 0.03 0.03 0.03 0.02 0.02 0.02 0.02 0.02
0.07 0.08 0.09 0.10 0.11 0.10 0.08 0.05 0.03 0.02 0.04 0.05 0.06 0.06 0.06 0.06 0.06 0.06 0.05 0.05 0.05 0.05 0.03 0.04 0.03 0.03 0.03 0.02 0.02 0.02 0.03 0.03 0.03 0.03 0.03 0.02 0.02 0.02 0.01 0.01 0.01 0.01 0.01
0.09 0.13 0.15 0.15 0.14 0.12 0.12 0.09 0.06 0.04 0.05 0.06 0.07 0.08 0.08 0.07 0.09 0.09 0.07 0.06 0.06 0.04 0.04 0.03 0.02 0.02 0.02 0.02 0.01 0.01 0.02 0.03 0.03 0.03 0.03 0.02 0.01 0.01 0.01 0.01 0.01 0.01 0.01
MSLP
1012.35 1012.58 1012.84 1013.13 1013.47 1013.86 1014.28 1014.71 1015.08 1015.37 1015.53 1015.56 1015.49 1015.38 1015.28 1015.27 1015.39 1015.68 1016.12 1016.68 1017.28 1017.88 1018.39 1018.80 1019.08 1019.24 1019.31 1019.35 1019.38 1019.43 1019.52 1019.65 1019.81 1019.98 1020.14 1020.29 1020.42 1020.53 1020.62 1020.71 1020.79 1020.87 1020.94
1012.28 1012.58 1012.90 1013.26 1013.66 1014.08 1014.52 1014.93 1015.29 1015.55 1015.69 1015.71 1015.63 1015.49 1015.37 1015.31 1015.37 1015.58 1015.94 1016.42 1016.97 1017.53 1018.05 1018.49 1018.83 1019.06 1019.20 1019.30 1019.37 1019.43 1019.52 1019.62 1019.75 1019.88 1020.01 1020.14 1020.25 1020.35 1020.44 1020.52 1020.60 1020.67 1020.74
1012.29 1012.65 1013.04 1013.45 1013.89 1014.33 1014.77 1015.18 1015.52 1015.76 1015.89 1015.89 1015.80 1015.65 1015.49 1015.38 1015.36 1015.48 1015.73 1016.10 1016.56 1017.06 1017.56 1018.01 1018.40 1018.70 1018.93 1019.10 1019.23 1019.33 1019.42 1019.51 1019.60 1019.70 1019.79 1019.88 1019.96 1020.05 1020.12 1020.19 1020.26 1020.33 1020.40
1012.36 1012.76 1013.19 1013.64 1014.10 1014.56 1015.00 1015.39 1015.71 1015.94 1016.06 1016.07 1015.98 1015.82 1015.64 1015.49 1015.39 1015.40 1015.52 1015.76 1016.10 1016.50 1016.95 1017.39 1017.80 1018.17 1018.47 1018.72 1018.92 1019.06 1019.18 1019.27 1019.33 1019.39 1019.44 1019.49 1019.54 1019.59 1019.65 1019.71 1019.77 1019.84 1019.91
1012.45 1012.86 1013.31 1013.77 1014.25 1014.71 1015.14 1015.52 1015.83 1016.05 1016.18 1016.20 1016.13 1015.99 1015.81 1015.62 1015.46 1015.36 1015.36 1015.45 1015.65 1015.93 1016.28 1016.68 1017.09 1017.48 1017.84 1018.16 1018.42 1018.62 1018.77 1018.86 1018.92 1018.95 1018.96 1018.97 1018.99 1019.01 1019.04 1019.09 1019.15 1019.22 1019.30
1012.53 1012.92 1013.36 1013.82 1014.29 1014.75 1015.17 1015.54 1015.85 1016.08 1016.22 1016.28 1016.25 1016.14 1015.97 1015.77 1015.57 1015.39 1015.26 1015.22 1015.27 1015.41 1015.65 1015.96 1016.33 1016.73 1017.12 1017.48 1017.79 1018.03 1018.21 1018.32 1018.38 1018.39 1018.38 1018.36 1018.35 1018.34 1018.36 1018.39 1018.45 1018.52 1018.60
1012.58 1012.94 1013.35 1013.79 1014.25 1014.69 1015.10 1015.47 1015.77 1016.02 1016.19 1016.29 1016.31 1016.25 1016.12 1015.94 1015.71 1015.48 1015.26 1015.10 1015.01 1015.02 1015.13 1015.34 1015.64 1016.00 1016.38 1016.76 1017.10 1017.38 1017.59 1017.72 1017.78 1017.79 1017.77 1017.74 1017.70 1017.68 1017.68 1017.71 1017.75 1017.83 1017.92
1012.59 1012.90 1013.28 1013.70 1014.13 1014.56 1014.96 1015.32 1015.64 1015.90 1016.10 1016.23 1016.31 1016.31 1016.23 1016.08 1015.87 1015.61 1015.34 1015.09 1014.89 1014.78 1014.77 1014.88 1015.09 1015.39 1015.74 1016.11 1016.46 1016.76 1017.00 1017.15 1017.23 1017.25 1017.23 1017.19 1017.14 1017.11 1017.10 1017.12 1017.16 1017.23 1017.33
1012.56 1012.83 1013.18 1013.57 1013.99 1014.40 1014.79 1015.15 1015.46 1015.72 1015.94 1016.11 1016.23 1016.28 1016.26 1016.15 1015.98 1015.74 1015.45 1015.16 1014.90 1014.71 1014.61 1014.63 1014.76 1015.00 1015.30 1015.65 1015.99 1016.30 1016.55 1016.73 1016.83 1016.86 1016.85 1016.81 1016.77 1016.73 1016.72 1016.73 1016.77 1016.83 1016.92
1012.49 1012.73 1013.05 1013.43 1013.83 1014.23 1014.61 1014.95 1015.25 1015.50 1015.72 1015.90 1016.04 1016.13 1016.16 1016.11 1015.99 1015.80 1015.54 1015.26 1014.99 1014.77 1014.62 1014.58 1014.66 1014.84 1015.11 1015.42 1015.76 1016.07 1016.33 1016.52 1016.64 1016.70 1016.70 1016.68 1016.64 1016.61 1016.59 1016.59 1016.63 1016.68 1016.76
1012.38 1012.60 1012.90 1013.26 1013.66 1014.05 1014.41 1014.73 1015.00 1015.23 1015.42 1015.59 1015.73 1015.84 1015.90 1015.91 1015.85 1015.73 1015.54 1015.31 1015.08 1014.88 1014.74 1014.69 1014.74 1014.90 1015.14 1015.44 1015.76 1016.07 1016.34 1016.55 1016.69 1016.77 1016.80 1016.79 1016.77 1016.74 1016.73 1016.73 1016.75 1016.79 1016.85
1012.20 1012.41 1012.71 1013.06 1013.45 1013.83 1014.17 1014.46 1014.70 1014.89 1015.04 1015.17 1015.28 1015.39 1015.47 1015.53 1015.54 1015.49 1015.40 1015.27 1015.12 1014.99 1014.90 1014.88 1014.95 1015.11 1015.35 1015.65 1015.96 1016.28 1016.55 1016.78 1016.94 1017.05 1017.10 1017.11 1017.11 1017.09 1017.08 1017.08 1017.10 1017.12 1017.16
1011.94 1012.15 1012.44 1012.80 1013.17 1013.54 1013.86 1014.12 1014.31 1014.45 1014.55 1014.63 1014.72 1014.80 1014.90 1014.99 1015.06 1015.10 1015.12 1015.10 1015.06 1015.04 1015.04 1015.09 1015.21 1015.40 1015.66 1015.96 1016.28 1016.59 1016.88 1017.12 1017.31 1017.43 1017.51 1017.55 1017.57 1017.57 1017.57 1017.58 1017.59 1017.61 1017.63
1011.61 1011.82 1012.10 1012.44 1012.81 1013.15 1013.46 1013.69 1013.85 1013.94 1013.99 1014.03 1014.08 1014.14 1014.24 1014.36 1014.49 1014.62 1014.73 1014.84 1014.93 1015.02 1015.12 1015.26 1015.45 1015.68 1015.96 1016.28 1016.60 1016.92 1017.21 1017.46 1017.66 1017.81 1017.92 1017.99 1018.04 1018.07 1018.09 1018.12 1018.14 1018.15 1018.15
1011.22 1011.41 1011.68 1012.01 1012.35 1012.69 1012.97 1013.18 1013.32 1013.39 1013.41 1013.42 1013.44 1013.50 1013.59 1013.74 1013.92 1014.12 1014.33 1014.54 1014.75 1014.95 1015.15 1015.38 1015.62 1015.90 1016.20 1016.52 1016.84 1017.16 1017.45 1017.70 1017.91 1018.09 1018.22 1018.32 1018.41 1018.48 1018.54 1018.58 1018.62 1018.65 1018.65
1010.79 1010.96 1011.21 1011.52 1011.85 1012.16 1012.44 1012.65 1012.78 1012.84 1012.86 1012.87 1012.89 1012.95 1013.06 1013.23 1013.46 1013.72 1014.00 1014.29 1014.59 1014.87 1015.15 1015.44 1015.72 1016.02 1016.33 1016.64 1016.94 1017.24 1017.52 1017.76 1017.98 1018.17 1018.33 1018.47 1018.60 1018.71 1018.82 1018.91 1018.98 1019.02 1019.04
1010.37 1010.53 1010.75 1011.03 1011.34 1011.64 1011.92 1012.13 1012.28 1012.37 1012.41 1012.45 1012.49 1012.58 1012.72 1012.92 1013.18 1013.48 1013.81 1014.16 1014.50 1014.84 1015.16 1015.46 1015.76 1016.05 1016.34 1016.62 1016.89 1017.15 1017.40 1017.63 1017.84 1018.04 1018.23 1018.40 1018.57 1018.73 1018.89 1019.03 1019.14 1019.23 1019.27
1010.00 1010.14 1010.34 1010.60 1010.89 1011.18 1011.45 1011.68 1011.86 1011.99 1012.09 1012.17 1012.27 1012.40 1012.58 1012.81 1013.10 1013.43 1013.79 1014.16 1014.52 1014.86 1015.19 1015.49 1015.76 1016.02 1016.26 1016.49 1016.71 1016.93 1017.13 1017.33 1017.53 1017.73 1017.94 1018.14 1018.35 1018.56 1018.77 1018.96 1019.12 1019.25 1019.34
1009.69 1009.82 1010.01 1010.25 1010.52 1010.80 1011.08 1011.33 1011.54 1011.72 1011.87 1012.02 1012.18 1012.37 1012.60 1012.87 1013.18 1013.53 1013.90 1014.26 1014.62 1014.95 1015.25 1015.52 1015.75 1015.96 1016.15 1016.32 1016.48 1016.63 1016.79 1016.95 1017.13 1017.32 1017.53 1017.76 1018.00 1018.25 1018.50 1018.73 1018.95 1019.12 1019.25
1009.44 1009.58 1009.76 1009.98 1010.24 1010.51 1010.78 1011.04 1011.28 1011.51 1011.72 1011.94 1012.16 1012.41 1012.69 1013.00 1013.33 1013.69 1014.06 1014.41 1014.75 1015.05 1015.32 1015.55 1015.74 1015.90 1016.03 1016.14 1016.24 1016.34 1016.45 1016.58 1016.73 1016.91 1017.11 1017.35 1017.61 1017.88 1018.15 1018.42 1018.67 1018.88 1019.05
1009.22 1009.38 1009.57 1009.78 1010.01 1010.27 1010.53 1010.79 1011.05 1011.30 1011.56 1011.83 1012.12 1012.42 1012.74 1013.09 1013.45 1013.82 1014.18 1014.52 1014.84 1015.13 1015.37 1015.57 1015.73 1015.85 1015.94 1016.00 1016.06 1016.12 1016.19 1016.28 1016.41 1016.56 1016.76 1016.99 1017.25 1017.52 1017.81 1018.09 1018.35 1018.58 1018.78
1008.99 1009.19 1009.39 1009.59 1009.80 1010.03 1010.26 1010.51 1010.77 1011.05 1011.34 1011.65 1011.98 1012.33 1012.69 1013.07 1013.45 1013.83 1014.19 1014.54 1014.85 1015.12 1015.36 1015.55 1015.70 1015.81 1015.88 1015.93 1015.97 1016.01 1016.05 1016.12 1016.22 1016.36 1016.53 1016.75 1016.99 1017.25 1017.52 1017.79 1018.04 1018.27 1018.47
1008.74 1008.97 1009.18 1009.37 1009.56 1009.75 1009.96 1010.18 1010.43 1010.71 1011.02 1011.35 1011.72 1012.10 1012.50 1012.91 1013.31 1013.70 1014.08 1014.43 1014.75 1015.03 1015.28 1015.49 1015.66 1015.78 1015.87 1015.94 1015.98 1016.02 1016.06 1016.11 1016.20 1016.31 1016.46 1016.65 1016.86 1017.09 1017.32 1017.56 1017.78 1017.99 1018.17
1008.43 1008.69 1008.90 1009.09 1009.25 1009.42 1009.59 1009.79 1010.03 1010.30 1010.62 1010.98 1011.37 1011.78 1012.21 1012.64 1013.06 1013.47 1013.86 1014.23 1014.57 1014.88 1015.16 1015.40 1015.61 1015.78 1015.91 1016.00 1016.07 1016.13 1016.18 1016.23 1016.31 1016.41 1016.53 1016.68 1016.86 1017.04 1017.23 1017.42 1017.59 1017.74 1017.88
1008.07 1008.35 1008.57 1008.75 1008.90 1009.04 1009.19 1009.38 1009.61 1009.89 1010.22 1010.60 1011.02 1011.46 1011.91 1012.35 1012.79 1013.21 1013.62 1014.00 1014.36 1014.71 1015.02 1015.31 1015.57 1015.79 1015.97 1016.11 1016.22 1016.31 1016.37 1016.44 1016.51 1016.59 1016.69 1016.81 1016.94 1017.08 1017.22 1017.34 1017.45 1017.54 1017.62
1007.70 1007.98 1008.20 1008.38 1008.52 1008.66 1008.81 1009.00 1009.25 1009.55 1009.91 1010.31 1010.76 1011.22 1011.69 1012.15 1012.60 1013.03 1013.44 1013.83 1014.21 1014.58 1014.93 1015.26 1015.56 1015.82 1016.05 1016.24 1016.39 1016.50 1016.59 1016.66 1016.73 1016.81 1016.89 1016.98 1017.07 1017.16 1017.24 1017.31 1017.36 1017.38 1017.39
Thickness
5765 5763 5762 5762 5763 5762 5762 5761 5761 5761 5762 5762 5762 5763 5763 5764 5763 5761 5758 5756 5755 5754 5752 5750 5749 5747 5746 5744 5743 5741 5740 5738 5737 5735 5734 5732 5731 5730 5729 5727 5726 5725 5724
5767 5765 5764 5764 5763 5763 5763 5762 5762 5762 5762 5762 5762 5763 5764 5765 5764 5762 5760 5758 5756 5755 5753 5752 5750 5748 5747 5745 5743 5742 5740 5739 5737 5736 5734 5732 5731 5729 5728 5727 5725 5724 5723
5767 5766 5766 5765 5764 5763 5764 5763 5763 5762 5762 5762 5762 5763 5764 5764 5764 5764 5762 5760 5757 5755 5754 5753 5751 5749 5747 5746 5744 5742 5741 5740 5738 5736 5734 5733 5731 5729 5728 5726 5725 5724 5722
5768 5767 5766 5765 5765 5765 5764 5763 5763 5761 5761 5761 5761 5762 5764 5764 5764 5764 5763 5762 5760 5758 5755 5754 5752 5750 5748 5746 5745 5743 5742 5740 5738 5736 5734 5733 5731 5729 5728 5726 5725 5723 5722
5769 5767 5766 5766 5765 5765 5765 5765 5763 5761 5759 5759 5760 5761 5763 5764 5765 5765 5764 5764 5762 5761 5758 5755 5753 5751 5749 5747 5746 5744 5742 5740 5738 5736 5735 5733 5731 5730 5728 5726 5725 5723 5722
5770 5768 5767 5766 5766 5765 5764 5763 5761 5761 5760 5760 5761 5761 5763 5764 5765 5765 5765 5765 5764 5762 5760 5757 5754 5751 5749 5748 5746 5745 5743 5741 5738 5736 5735 5733 5731 5730 5728 5726 5725 5723 5722
5771 5769 5769 5767 5766 5765 5763 5763 5761 5759 5758 5760 5757 5755 5760 5764 5765 5765 5765 5764 5764 5763 5761 5759 5756 5753 5750 5748 5747 5745 5743 5741 5739 5737 5735 5733 5731 5730 5728 5726 5725 5723 5722
5773 5772 5769 5768 5767 5765 5763 5762 5761 5758 5757 5760 5755 5749 5747 5753 5760 5766 5764 5763 5763 5762 5761 5760 5758 5755 5753 5750 5748 5745 5743 5741 5739 5737 5735 5733 5731 5730 5728 5726 5725 5723 5721
5775 5773 5771 5770 5768 5766 5763 5762 5761 5757 5754 5758 5759 5752 5744 5742 5749 5758 5762 5763 5762 5761 5761 5760 5758 5756 5754 5751 5749 5745 5743 5741 5739 5737 5735 5733 5731 5729 5728 5726 5724 5723 5721
5777 5775 5773 5771 5768 5767 5764 5763 5763 5761 5757 5754 5757 5758 5756 5753 5745 5744 5752 5758 5760 5759 5759 5760 5758 5757 5754 5752 5749 5745 5742 5740 5737 5736 5734 5732 5731 5729 5727 5726 5724 5722 5721
5778 5777 5774 5771 5769 5767 5766 5765 5764 5762 5760 5757 5756 5756 5755 5754 5752 5744 5741 5747 5752 5756 5757 5758 5757 5755 5753 5751 5748 5744 5741 5738 5736 5734 5732 5731 5729 5728 5727 5725 5724 5722 5720
5779 5778 5776 5772 5770 5768 5767 5765 5764 5762 5760 5759 5758 5757 5754 5751 5749 5747 5743 5744 5745 5750 5754 5755 5754 5753 5751 5749 5746 5743 5740 5736 5734 5732 5730 5728 5727 5726 5725 5724 5722 5721 5719
5780 5779 5778 5774 5771 5769 5767 5766 5764 5762 5760 5759 5758 5757 5756 5755 5755 5751 5747 5744 5744 5747 5749 5751 5751 5749 5748 5745 5743 5740 5737 5734 5731 5729 5727 5725 5724 5723 5722 5721 5720 5719 5717
5784 5782 5779 5775 5772 5770 5768 5766 5764 5762 5761 5760 5759 5757 5756 5756 5757 5754 5750 5745 5740 5741 5742 5744 5747 5746 5744 5741 5739 5736 5732 5729 5727 5725 5723 5721 5720 5719 5718 5717 5716 5715 5714
5786 5783 5780 5776 5773 5770 5767 5765 5762 5761 5761 5759 5758 5757 5756 5757 5757 5756 5754 5750 5741 5734 5735 5740 5740 5742 5740 5738 5734 5731 5728 5725 5723 5721 5719 5717 5716 5714 5713 5712 5711 5710 5709
5786 5783 5780 5776 5773 5771 5768 5765 5762 5761 5759 5758 5757 5755 5754 5754 5754 5754 5752 5750 5747 5739 5734 5738 5738 5738 5737 5734 5729 5727 5724 5721 5718 5716 5714 5712 5711 5709 5708 5707 5706 5705 5703
5785 5782 5778 5775 5772 5770 5768 5765 5762 5761 5758 5756 5755 5754 5752 5752 5750 5750 5750 5748 5745 5741 5734 5734 5735 5733 5731 5728 5724 5721 5719 5716 5713 5711 5710 5708 5706 5704 5703 5701 5700 5698 5697
5785 5782 5778 5775 5771 5769 5767 5764 5761 5759 5757 5754 5753 5751 5749 5749 5747 5746 5745 5743 5742 5740 5735 5729 5729 5727 5724 5722 5719 5717 5714 5712 5708 5706 5704 5702 5701 5698 5697 5695 5693 5691 5690
5783 5781 5777 5773 5770 5768 5766 5763 5760 5757 5755 5753 5751 5749 5747 5745 5742 5742 5740 5739 5738 5738 5735 5729 5726 5724 5720 5718 5714 5712 5710 5707 5704 5702 5699 5697 5695 5693 5690 5688 5687 5685 5683
5781 5778 5775 5773 5770 5767 5764 5761 5759 5756 5753 5751 5749 5747 5745 5742 5739 5738 5737 5735 5734 5732 5730 5727 5723 5720 5717 5714 5710 5706 5703 5701 5699 5697 5694 5691 5688 5686 5683 5681 5680 5677 5675
5780 5776 5773 5770 5768 5765 5762 5758 5756 5753 5750 5748 5746 5744 5743 5740 5737 5735 5733 5730 5729 5726 5724 5721 5718 5715 5711 5707 5705 5703 5699 5696 5694 5693 5689 5686 5683 5680 5677 5675 5673 5670 5668
5776 5773 5769 5767 5764 5762 5757 5754 5751 5749 5746 5743 5741 5739 5738 5735 5733 5730 5727 5725 5724 5721 5718 5715 5713 5709 5707 5704 5702 5699 5694 5690 5687 5688 5684 5681 5679 5676 5673 5670 5667 5665 5661
5771 5768 5766 5763 5760 5757 5753 5749 5746 5744 5742 5739 5736 5734 5733 5732 5728 5725 5722 5719 5717 5716 5714 5711 5707 5705 5703 5700 5696 5692 5690 5686 5684 5683 5680 5675 5674 5671 5669 5666 5662 5659 5655
5767 5764 5761 5759 5755 5751 5746 5743 5741 5738 5737 5735 5732 5729 5727 5725 5722 5720 5717 5714 5712 5710 5708 5706 5704 5702 5700 5697 5693 5689 5685 5682 5679 5678 5675 5670 5669 5666 5664 5659 5656 5652 5648
5762 5759 5756 5753 5749 5744 5740 5737 5733 5731 5729 5728 5727 5725 5722 5719 5716 5713 5710 5707 5705 5703 5701 5699 5697 5695 5693 5690 5687 5682 5678 5674 5670 5669 5668 5664 5662 5659 5656 5652 5648 5644 5641
5755 5753 5750 5748 5745 5740 5734 5730 5726 5725 5723 5721 5721 5719 5716 5713 5709 5706 5703 5700 5697 5696 5694 5691 5689 5687 5685 5682 5679 5675 5672 5667 5664 5661 5660 5656 5654 5650 5646 5645 5641 5637 5632